Location: Unspecified
(0.0000°N, 0.0000°E)
Time: 21:53:40
(UTC+00:00)

Vanguard 1 Rocket - All Passes

Search period start: 15 July 2024 00:00
Search period end: 25 July 2024 00:00
Orbit: 650 x 4219 km, 34.3° (Epoch: 15 July)

Date Brightness Start Highest point End Pass type
(mag) Time Alt. Az. Time Alt. Az. Time Alt. Az.
15 Jul - 00:03:14 10° N 00:09:01 14° NE 00:16:34 10° ENE visible
15 Jul - 02:24:11 10° NW 02:38:30 55° NE 03:02:33 10° ESE visible
15 Jul - 04:50:41 10° WNW 05:10:32 67° SW 05:36:49 10° SE visible
15 Jul - 07:25:52 10° W 07:46:49 31° SSW 08:06:06 10° SSE daylight
15 Jul - 10:14:25 10° SW 10:26:01 16° S 10:34:58 10° SSE daylight
15 Jul - 12:52:18 10° SSW 13:01:07 19° SSE 13:07:05 10° SE daylight
15 Jul - 15:21:03 10° SW 15:29:45 61° SSE 15:34:48 10° ENE daylight
15 Jul - 17:52:25 10° WNW 17:54:23 12° NW 17:56:12 10° NNW daylight
16 Jul - 01:13:08 10° NNW 01:24:16 35° NE 01:42:51 10° E visible
16 Jul - 03:37:20 10° NW 03:54:18 89° SW 04:21:00 10° SE visible
16 Jul - 06:07:48 10° W 06:28:53 42° SSW 06:52:06 10° SE daylight
16 Jul - 08:51:04 10° WSW 09:07:43 20° SSW 09:21:09 10° SSE daylight
16 Jul - 11:35:59 10° SSW 11:45:47 17° S 11:52:50 10° SE daylight
16 Jul - 14:06:56 10° SW 14:17:03 35° SSE 14:22:52 10° E daylight
16 Jul - 16:36:36 10° WSW 16:42:47 35° NW 16:47:03 10° NNE daylight
17 Jul - 00:03:21 10° N 00:10:30 18° NE 00:20:46 10° ENE visible
17 Jul - 02:25:08 10° NW 02:39:11 66° NE 03:03:47 10° ESE visible
17 Jul - 04:52:18 10° WNW 05:11:32 57° SW 05:37:18 10° SE visible
17 Jul - 07:29:08 10° WSW 07:48:56 27° SSW 08:07:10 10° SSE daylight
17 Jul - 10:16:41 10° SW 10:28:56 17° S 10:38:07 10° SE daylight
17 Jul - 12:52:11 10° SSW 13:03:17 25° SSE 13:10:05 10° ESE daylight
17 Jul - 15:21:57 10° SW 15:31:09 87° NW 15:36:21 10° NE daylight
18 Jul - 01:13:54 10° NNW 01:25:06 43° NE 01:44:54 10° ESE visible
18 Jul - 03:38:37 10° WNW 03:55:08 77° SW 04:21:34 10° SE visible
18 Jul - 06:10:17 10° W 06:30:29 36° SSW 06:52:46 10° SSE daylight
18 Jul - 08:54:40 10° SW 09:10:35 19° S 09:23:20 10° SSE daylight
18 Jul - 11:36:10 10° SSW 11:48:16 21° SSE 11:56:18 10° ESE daylight
18 Jul - 14:07:17 10° SW 14:18:45 51° SSE 14:24:52 10° ENE daylight
18 Jul - 16:38:40 10° W 16:43:54 23° NW 16:47:45 10° N daylight
19 Jul - 00:03:44 10° N 00:11:43 23° NE 00:24:09 10° E visible
19 Jul - 02:26:13 10° NW 02:39:54 79° NE 03:04:41 10° SE visible
19 Jul - 04:54:13 10° W 05:12:48 48° SSW 05:37:45 10° SE visible
19 Jul - 07:32:40 10° WSW 07:51:25 24° SSW 08:08:33 10° SSE daylight
19 Jul - 10:18:08 10° SSW 10:31:45 19° S 10:41:31 10° SE daylight
19 Jul - 12:52:12 10° SW 13:05:16 34° SSE 13:12:36 10° E daylight
19 Jul - 15:23:07 10° WSW 15:32:22 58° NW 15:37:38 10° NE daylight
20 Jul - 01:14:47 10° NNW 01:25:52 52° NE 01:46:30 10° ESE visible
20 Jul - 03:40:07 10° WNW 03:56:09 65° SW 04:22:00 10° SE visible
20 Jul - 06:13:08 10° WSW 06:32:27 31° SSW 06:53:35 10° SSE daylight
20 Jul - 08:57:41 10° SW 09:13:35 19° S 09:26:05 10° SE daylight
20 Jul - 11:36:17 10° SSW 11:50:33 26° SSE 11:59:20 10° ESE daylight
20 Jul - 14:07:51 10° SW 14:20:14 73° SE 14:26:34 10° ENE daylight
20 Jul - 16:41:27 10° WNW 16:45:01 15° NW 16:47:56 10° N daylight
21 Jul - 00:04:19 10° NNW 00:12:42 30° NE 00:26:51 10° E visible
21 Jul - 02:27:25 10° NW 02:40:44 87° SW 03:05:21 10° SE visible
21 Jul - 04:56:24 10° W 05:14:20 41° SSW 05:38:13 10° SE visible
21 Jul - 07:36:15 10° SW 07:54:13 22° S 08:10:25 10° SE daylight
21 Jul - 10:19:00 10° SSW 10:34:23 22° S 10:44:52 10° ESE daylight
21 Jul - 12:52:22 10° SW 13:07:03 46° SSE 13:14:44 10° E daylight
21 Jul - 15:24:37 10° WSW 15:33:26 39° NW 15:38:39 10° NNE daylight
21 Jul - 22:55:50 10° NNE 22:59:51 13° NE 23:04:54 10° ENE night (unlit)
22 Jul - 01:15:47 10° NW 01:26:37 65° NE 01:47:42 10° ESE visible
22 Jul - 03:41:51 10° WNW 03:57:23 54° SSW 04:22:19 10° SE visible
22 Jul - 06:16:19 10° WSW 06:34:46 27° SSW 06:54:40 10° SSE daylight
22 Jul - 08:59:57 10° SW 09:16:33 21° S 09:29:14 10° SE daylight
22 Jul - 11:36:22 10° SW 11:52:38 33° SSE 12:01:57 10° E daylight
22 Jul - 14:08:37 10° SW 14:21:31 83° NW 14:28:01 10° NE daylight
23 Jul - 00:05:02 10° NNW 00:13:34 38° NE 00:28:58 10° ESE visible
23 Jul - 02:28:49 10° WNW 02:41:45 73° SW 03:05:48 10° SE visible
23 Jul - 04:58:56 10° W 05:16:11 34° SSW 05:38:46 10° SE visible
23 Jul - 07:39:35 10° SW 07:57:13 21° S 08:12:49 10° SE daylight
23 Jul - 10:19:30 10° SW 10:36:49 27° SSE 10:47:58 10° ESE daylight
23 Jul - 12:52:40 10° SW 13:08:37 61° SSE 13:16:34 10° ENE daylight
23 Jul - 15:26:30 10° W 15:34:25 28° NW 15:39:27 10° NNE daylight
23 Jul - 22:55:36 10° N 23:01:02 18° NE 23:08:48 10° E night (unlit)
24 Jul - 01:16:55 10° NW 01:27:27 79° NE 01:48:35 10° SE visible
24 Jul - 03:43:50 10° W 03:58:53 45° SSW 04:22:36 10° SE visible
24 Jul - 06:19:42 10° WSW 06:37:24 24° SSW 06:56:09 10° SE daylight
24 Jul - 09:01:30 10° SW 09:19:21 23° S 09:32:32 10° SE daylight
24 Jul - 11:36:27 10° SW 11:54:30 43° SSE 12:04:13 10° E daylight
24 Jul - 14:09:39 10° WSW 14:22:36 61° NW 14:29:15 10° NE daylight
